Location: ??
(35.5052°N, 139.7262°E)
Time: 03:41:31
(UTC+00:00)

OAO 3 Rocket - Pass Details

Date: 20 June 2021
Orbit: 628 x 683 km, 35.0° (Epoch: 26 July)

Event Time Altitude Azimuth Distance (km) Brightness Sun altitude
Exits shadow 18:09:29 21° 228° (SW) 1,440 4.3 -13.4°
Maximum altitude 18:12:23 50° 161° (SSE) 821 3.5 -13.0°
Drops below altitude 10° 18:17:01 10° 87° (E) 2,054 6.6 -12.3°
Sets 18:19:27 0° 82° (E) 2,977 7.6 -11.9°
